N1CTF Weather Reports


Display with metric or nautical units.
time (UTC)temp
F
wind
direction
speed
MPH
gust
MPH
rain 1hr
in
rain 24hr
in
rain mn
in
humidity
%
barometer
mb
20260903034027 80 344 1.0 2.0 0.00 0.00 0.00 74 1014.0
20260903033028 80 354 0.0 0.0 0.00 0.00 0.00 74 1014.1
20260903032028 81 64 0.0 1.0 0.00 0.00 0.00 73 1014.1
20260903031028 81 5 0.0 0.0 0.00 0.00 0.00 72 1013.8
20260903030027 81 57 0.0 2.0 0.00 0.00 0.00 73 1014.2
20260903025027 81 36 0.0 1.0 0.00 0.00 0.00 73 1014.5
20260903024028 81 37 0.0 1.0 0.00 0.00 0.00 73 1014.2
20260903023028 81 135 0.0 0.0 0.00 0.00 0.00 73 1014.1
20260903022027 82 16 1.0 2.0 0.00 0.00 0.00 72 1014.2
20260903021028 82 220 2.0 2.0 0.00 0.00 0.00 72 1014.3
20260903020029 82 258 2.0 2.0 0.00 0.00 0.00 72 1014.4
20260903015028 83 40 0.0 0.0 0.00 0.00 0.00 70 1014.1
20260903014027 83 318 1.0 2.0 0.00 0.00 0.00 69 1014.0
20260903013028 83 31 1.0 1.0 0.00 0.00 0.00 69 1014.2
20260903012027 83 25 1.0 1.0 0.00 0.00 0.00 69 1014.1
20260903011028 84 32 2.0 2.0 0.00 0.00 0.00 67 1013.9
20260903010027 84 333 0.0 0.0 0.00 0.00 0.00 66 1014.1
20260903005028 85 38 0.0 0.0 0.00 0.00 0.00 65 1013.9
20260903004029 85 265 1.0 1.0 0.00 0.00 0.00 64 1013.7
20260903003028 85 40 1.0 1.0 0.00 0.00 0.00 62 1013.4
20260903002028 86 275 0.0 2.0 0.00 0.00 0.00 62 1013.3
20260903001028 86 210 0.0 1.0 0.00 0.00 0.00 61 1013.5
20260903000027 87 319 0.0 1.0 0.00 0.00 0.00 60 1013.5
20260902235028 87 13 2.0 2.0 0.00 0.00 0.00 59 1013.3
20260902234028 87 220 0.0 2.0 0.00 0.00 0.00 57 1013.2
20260902233028 88 306 0.0 2.0 0.00 0.00 0.00 56 1013.3
20260902232027 88 269 1.0 2.0 0.00 0.00 0.00 55 1013.4
20260902231027 89 89 0.0 2.0 0.00 0.00 0.00 54 1013.1
20260902230027 89 299 0.0 2.0 0.00 0.00 0.00 52 1013.1
20260902225027 89 290 1.0 2.0 0.00 0.00 0.00 53 1013.0
20260902224027 90 310 2.0 5.0 0.00 0.00 0.00 50 1013.3
20260902223028 91 54 2.0 3.0 0.00 0.00 0.00 50 1013.0
20260902222029 90 13 3.0 7.0 0.00 0.00 0.00 49 1013.3
20260902221028 91 46 1.0 1.0 0.00 0.00 0.00 49 1013.2
20260902220028 91 262 3.0 6.0 0.00 0.00 0.00 48 1013.1
20260902215027 91 27 1.0 3.0 0.00 0.00 0.00 50 1013.2
20260902214028 91 221 1.0 2.0 0.00 0.00 0.00 50 1013.1
20260902213028 92 227 3.0 4.0 0.00 0.00 0.00 49 1013.2
20260902212028 92 15 2.0 3.0 0.00 0.00 0.00 49 1013.4
20260902211027 92 34 6.0 6.0 0.00 0.00 0.00 50 1013.2
20260902210027 93 275 2.0 4.0 0.00 0.00 0.00 49 1013.1
20260902205027 93 323 2.0 5.0 0.00 0.00 0.00 47 1013.2
20260902204028 93 247 1.0 5.0 0.00 0.00 0.00 45 1013.4
20260902203028 94 30 3.0 4.0 0.00 0.00 0.00 44 1013.4
20260902202028 94 296 5.0 5.0 0.00 0.00 0.00 46 1013.6
20260902201028 93 292 2.0 3.0 0.00 0.00 0.00 44 1013.4
20260902200029 94 83 5.0 5.0 0.00 0.00 0.00 45 1013.8
20260902195027 92 266 2.0 4.0 0.00 0.00 0.00 48 1014.0
20260902194028 92 12 3.0 6.0 0.00 0.00 0.00 48 1014.0
20260902193028 93 14 2.0 4.0 0.00 0.00 0.00 47 1014.0
20260902192028 92 297 1.0 3.0 0.00 0.00 0.00 48 1014.0
20260902191027 94 231 1.0 2.0 0.00 0.00 0.00 49 1014.1
20260902190028 94 218 5.0 5.0 0.00 0.00 0.00 46 1014.3
20260902185028 95 300 2.0 5.0 0.00 0.00 0.00 45 1014.4
20260902184027 93 212 4.0 4.0 0.00 0.00 0.00 48 1014.4
20260902183028 93 3 3.0 5.0 0.00 0.00 0.00 50 1014.2
20260902182027 93 218 1.0 2.0 0.00 0.00 0.00 48 1014.7
20260902181028 94 226 4.0 7.0 0.00 0.00 0.00 48 1014.6
20260902180027 93 351 3.0 3.0 0.00 0.00 0.00 50 1015.2
20260902175028 92 34 2.0 2.0 0.00 0.00 0.00 48 1015.0
20260902174028 91 13 1.0 1.0 0.00 0.00 0.00 49 1015.2
20260902173028 92 251 4.0 4.0 0.00 0.00 0.00 51 1015.2
20260902172028 91 264 2.0 4.0 0.00 0.00 0.00 51 1015.4
20260902171028 92 22 5.0 5.0 0.00 0.00 0.00 50 1015.6
20260902170029 91 222 0.0 2.0 0.00 0.00 0.00 51 1015.5
20260902165028 91 249 4.0 5.0 0.00 0.00 0.00 52 1015.6
20260902164027 91 1 1.0 3.0 0.00 0.00 0.00 53 1015.5
20260902163028 92 7 3.0 4.0 0.00 0.00 0.00 52 1015.6
20260902162028 91 73 2.0 3.0 0.00 0.00 0.00 53 1015.5
20260902161028 91 23 3.0 3.0 0.00 0.00 0.00 54 1015.5
20260902160027 89 326 0.0 3.0 0.00 0.00 0.00 56 1016.0
20260902155027 89 201 2.0 3.0 0.00 0.00 0.00 56 1016.1
20260902154028 88 268 0.0 2.0 0.00 0.00 0.00 56 1016.1
20260902153027 88 265 2.0 3.0 0.00 0.00 0.00 59 1016.1
20260902152028 86 330 2.0 2.0 0.00 0.00 0.00 60 1016.1
20260902151027 87 265 2.0 4.0 0.00 0.00 0.00 60 1016.3
20260902150027 85 36 2.0 2.0 0.00 0.00 0.00 64 1016.3
20260902145027 83 258 0.0 1.0 0.00 0.00 0.00 65 1016.5
20260902144028 85 243 2.0 2.0 0.00 0.00 0.00 65 1016.4
20260902143028 83 326 0.0 2.0 0.00 0.00 0.00 68 1016.3
20260902142028 81 66 2.0 2.0 0.00 0.00 0.00 68 1016.6
20260902141027 82 278 3.0 3.0 0.00 0.00 0.00 68 1016.7
20260902140028 82 300 2.0 3.0 0.00 0.00 0.00 68 1016.5
20260902135028 82 92 2.0 3.0 0.00 0.00 0.00 69 1016.4
20260902134027 81 19 5.0 6.0 0.00 0.00 0.00 70 1016.3
20260902133027 80 70 2.0 3.0 0.00 0.00 0.00 71 1016.5
20260902132028 80 354 0.0 3.0 0.00 0.00 0.00 73 1016.3
20260902131028 78 58 3.0 3.0 0.00 0.00 0.00 77 1016.6
20260902130027 78 86 0.0 1.0 0.00 0.00 0.00 80 1016.5
20260902125028 77 280 0.0 2.0 0.00 0.00 0.00 82 1016.7
20260902124028 75 57 0.0 2.0 0.00 0.00 0.00 85 1016.6
20260902123028 74 276 0.0 1.0 0.00 0.00 0.00 89 1016.6
20260902122027 73 13 2.0 3.0 0.00 0.00 0.00 92 1016.5
20260902121028 71 12 0.0 2.0 0.00 0.00 0.00 94 1016.9
20260902120029 71 20 1.0 2.0 0.00 0.00 0.00 95 1016.7
20260902115027 71 3 1.0 2.0 0.00 0.00 0.00 95 1016.8
20260902114028 71 69 2.0 2.0 0.00 0.00 0.00 95 1016.5
20260902113027 71 7 1.0 1.0 0.00 0.00 0.00 94 1016.8
20260902112029 71 64 2.0 3.0 0.00 0.00 0.00 95 1016.5
20260902111028 71 14 1.0 3.0 0.00 0.00 0.00 94 1016.6
20260902110028 71 58 1.0 3.0 0.00 0.00 0.00 94 1016.6
20260902105028 71 50 1.0 2.0 0.00 0.00 0.00 94 1016.2
20260902104028 71 56 1.0 2.0 0.00 0.00 0.00 94 1016.3
20260902103027 71 34 3.0 3.0 0.00 0.00 0.00 94 1016.3
20260902102027 71 42 1.0 2.0 0.00 0.00 0.00 93 1016.3
20260902101027 71 76 1.0 1.0 0.00 0.00 0.00 92 1016.4
20260902100027 71 29 2.0 4.0 0.00 0.00 0.00 92 1016.5
20260902095027 71 1 2.0 3.0 0.00 0.00 0.00 92 1016.4
20260902094027 71 21 1.0 2.0 0.00 0.00 0.00 91 1016.2
20260902093027 72 100 0.0 2.0 0.00 0.00 0.00 91 1016.3
20260902092027 72 45 1.0 3.0 0.00 0.00 0.00 90 1016.3
20260902091027 72 94 1.0 2.0 0.00 0.00 0.00 90 1016.0
20260902090027 72 114 0.0 2.0 0.00 0.00 0.00 90 1016.2
20260902085027 73 360 1.0 2.0 0.00 0.00 0.00 89 1016.4
20260902084027 73 69 1.0 3.0 0.00 0.00 0.00 88 1016.1
20260902083027 73 86 3.0 4.0 0.00 0.00 0.00 87 1016.0
20260902082028 74 80 2.0 4.0 0.00 0.00 0.00 86 1016.0
20260902081027 75 98 3.0 3.0 0.00 0.00 0.00 85 1015.7
20260902080027 75 170 2.0 3.0 0.00 0.00 0.00 84 1015.8
20260902075028 76 135 3.0 3.0 0.00 0.00 0.00 82 1015.7
20260902074027 76 10 2.0 3.0 0.00 0.00 0.00 81 1015.5
20260902073027 77 335 2.0 4.0 0.00 0.00 0.00 80 1015.6
20260902072027 77 54 2.0 4.0 0.00 0.00 0.00 80 1015.5
20260902071028 77 178 2.0 2.0 0.00 0.00 0.00 79 1015.4
20260902070027 77 54 0.0 1.0 0.00 0.00 0.00 79 1015.4
20260902065027 77 115 1.0 2.0 0.00 0.00 0.00 79 1015.2
20260902064027 77 17 0.0 0.0 0.00 0.00 0.00 79 1015.4
20260902063028 77 37 0.0 0.0 0.00 0.00 0.00 78 1015.5
20260902062028 77 22 1.0 1.0 0.00 0.00 0.00 78 1015.3
20260902061027 77 303 1.0 1.0 0.00 0.00 0.00 79 1015.5
20260902060027 77 46 1.0 2.0 0.00 0.00 0.00 79 1015.4
20260902055027 77 44 0.0 0.0 0.00 0.00 0.00 79 1015.4
20260902054028 77 40 0.0 0.0 0.00 0.00 0.00 79 1015.4
20260902053027 78 43 1.0 1.0 0.00 0.00 0.00 78 1015.2
20260902052028 78 94 1.0 1.0 0.00 0.00 0.00 77 1015.3
20260902051027 78 65 1.0 1.0 0.00 0.00 0.00 77 1015.2
20260902050028 78 27 0.0 0.0 0.00 0.00 0.00 76 1015.4
20260902045027 78 64 1.0 1.0 0.00 0.00 0.00 77 1015.0
20260902044028 79 43 0.0 1.0 0.00 0.00 0.00 75 1015.0
20260902043028 80 69 0.0 1.0 0.00 0.00 0.00 73 1014.7
20260902042028 80 218 1.0 3.0 0.00 0.00 0.00 72 1014.9
20260902041028 80 202 0.0 2.0 0.00 0.00 0.00 72 1015.0
20260902040028 81 16 0.0 2.0 0.00 0.00 0.00 72 1014.9
20260902035027 81 37 0.0 0.0 0.00 0.00 0.00 71 1014.5